Regional Weather Roundup
Issued by NWS

Home | Current Version | Previous Version | Text Only | Print | Product List | Glossary Off
Versions: 1 2 3 4 5 6 7 8 9 10 11 12 13 14 15 16 17 18 19 20 21 22 23 24 25 26 27 28 29 30 31 32 33 34 35 36 37 38 39 40 41 42 43 44 45 46 47 48 49 50

000
ASUS43 KMKX 271121
RWRWI

WISCONSIN REGIONAL WEATHER ROUNDUP
NATIONAL WEATHER SERVICE MILWAUKEE/SULLIVAN WI
600 AM CDT FRI MAY 27 2016

NOTE: "FAIR" INDICATES FEW OR NO CLOUDS BELOW 12,000 FEET WITH NO
SIGNIFICANT WEATHER AND/OR OBSTRUCTIONS TO VISIBILITY.

WIZ001-002-006>008-014>016-023>028-271200-
NORTHWEST WISCONSIN

CITY           SKY/WX    TMP DP  RH WIND       PRES   REMARKS
SUPERIOR ARPT  FOG       45  45 100 CALM      29.87R VSB<1/4
ASHLAND        FOG       49  49 100 N7        29.86F VSB 1/4
HAYWARD        CLOUDY    51  49  92 N5        29.86F
SIREN          CLOUDY    60  54  80 SE3       29.83F
CUMBERLAND     CLOUDY    57  54  88 CALM      29.85F
RICE LAKE      CLOUDY    60  56  88 CALM      29.86F
CHETEK         CLOUDY    59  57  94 CALM      29.86S
LADYSMITH      CLOUDY    56  55  96 CALM      29.90R
EAU CLAIRE     CLOUDY    60  57  89 NE3       29.84R
MENOMONIE      CLOUDY    63  57  82 CALM      29.85R
NEW RICHMOND   LGT RAIN  61  58  88 E6        29.83F
OSCEOLA        LGT RAIN  65  56  74 SE6       29.86R
$$

WIZ003>005-009-010-017-018-271200-
NORTH CENTRAL WISCONSIN

CITY           SKY/WX    TMP DP  RH WIND       PRES   REMARKS
MANITOWISH WTR NOT AVBL
ARBOR VITAE    MOCLDY    52  51  96 CALM      29.90S
WOODRUFF       MOCLDY    52  51  96 CALM      29.90S
RHINELANDER    PTCLDY    53  52  96 CALM      29.92R FOG
EAGLE RIVER    FOG       51  51 100 CALM      29.91R VSB 1/2
LAND O LAKES   MOCLDY    51  51 100 CALM      29.91F
PHILLIPS       CLOUDY    52  52 100 CALM      29.89R
TOMAHAWK       PTCLDY    50  49  97 CALM      29.91S
MEDFORD        CLOUDY    55  55 100 CALM      29.90R
MERRILL        CLOUDY    50  50 100 CALM      29.91S
$$

WIZ029-030-035-036-043>047-271200-
CENTRAL WISCONSIN

CITY           SKY/WX    TMP DP  RH WIND       PRES   REMARKS
WAUSAU         CLOUDY    58  55  90 CALM      29.87F
MOSINEE        PTCLDY    57  57 100 CALM      29.89F
MARSHFIELD     CLOUDY    59  55  87 NE6       29.86F
STEVENS POINT  PTCLDY    52  52  99 CALM      29.88F
WAUPACA        PTCLDY    58  57  98 CALM      29.88S
WAUTOMA        CLOUDY    57  56  96 CALM      29.87F
WISC RAPIDS    MOCLDY    59  55  87 CALM      29.88S
CAMP DOUGLAS   MOCLDY    57 N/A N/A SE1       29.85S
$$

WIZ011>013-019>022-031-037>040-048>050-271200-
NORTHEAST WISCONSIN

CITY           SKY/WX    TMP DP  RH WIND       PRES   REMARKS
ANTIGO         CLEAR     52  52  99 CALM      29.91S
SHAWANO        FOG       57  56  94 CALM      29.89R VSB 3/4
OCONTO         CLEAR    N/A N/A N/A CALM      29.88S
STURGEON BAY   NOT AVBL
GREEN BAY      CLEAR     59  57  93 CALM      29.87F
MANITOWOC      CLEAR     54  52  93 CALM      29.89S FOG
APPLETON       MOCLDY    61  57  88 CALM      29.87S
CLINTONVILLE   FOG       54  54 100 CALM      29.88S VSB 1/4
OSHKOSH        PTCLDY    59  55  87 N3        29.87S
$$

WIZ032>034-041-042-053>061-271200-
SOUTHWEST WISCONSIN

CITY           SKY/WX    TMP DP  RH WIND       PRES   REMARKS
LA CROSSE      CLOUDY    65  60  84 SE6       29.83S
SPARTA         MOCLDY    57  57  99 CALM      29.85S
VIROQUA        CLOUDY    63  62  96 S14       29.90R
BOSCOBEL       RAIN      65  64  97 N12       29.84F FOG
PRAIRIE DU CHI DRIZZLE   64  63  95 CALM      29.84F
PLATTEVILLE    CLOUDY    64  63  97 N5        29.83F
$$

WIZ056-057-062-063-064-067-068-271200-
SOUTH CENTRAL WISCONSIN

CITY           SKY/WX    TMP DP  RH WIND       PRES   REMARKS
REEDSBURG      CLOUDY    59  59 100 S17G23    29.91R
BARABOO/DELLS  LGT RAIN  62  59  90 S21G31    29.91R
LONE ROCK      LGT RAIN  64  61  90 N9        29.86F
MINERAL POINT  CLOUDY    63  63 100 NW3       29.84F
MADISON        LGT RAIN  63  59  87 N9        29.81F
MIDDLETON      CLOUDY    66  61  83 N9        29.83F
WATERTOWN      MOCLDY    64  63  97 CALM      29.86S
MONROE         CLOUDY    63  61  94 SW3       29.84S
JANESVILLE     CLOUDY    70  66  88 SW8G17    29.87R
$$

WIZ051-052-058>065-066-070>072-271200-
SOUTHEAST WISCONSIN

CITY           SKY/WX    TMP DP  RH WIND       PRES   REMARKS
MILWAUKEE      CLOUDY    70  65  84 CALM      29.85F
WAUKESHA       CLEAR     64  63  94 CALM      29.87F
MILWAUKEE/TIMM MOCLDY    63  57  82 CALM      29.86F
RACINE         CLOUDY    66  63  90 S5        29.89S
BURLINGTON     PTCLDY    60  60  99 CALM      29.87F
KENOSHA        CLOUDY    69  66  90 SW6       29.87F
FOND DU LAC    MOCLDY    58  57  97 CALM      29.88S
SHEBOYGAN      CLOUDY    58  56  93 CALM      29.88S FOG
WEST BEND      MOCLDY    59  57  94 CALM      29.88S
JUNEAU         CLOUDY    62  59  90 CALM      29.88S
$$

LSZ147-162-271200-
LAKE SUPERIOR

STATION/POSITION TIME  TEMP    WIND        PRES    WAVE
                       AIR SEA DIR/SP/G            HT/PER
                 (UTC) (F)     (DEG/KT/KT) (MB)    (FT/S)
W MID LAKE BUOY  1050   40 38  180/  4/  6 1012.4R   1
DEVILS ISLAND    1100   43     130/  6/  7 1012.2R
SAXON HARBOR     1020   45     170/  2/  6 1011.2R
$$

LMZ867-665-643>646-271200-
LAKE MICHIGAN

STATION/POSITION TIME  TEMP    WIND        PRES    WAVE
                       AIR SEA DIR/SP/G            HT/PER
                 (UTC) (F)     (DEG/KT/KT) (MB)    (FT/S)
CHAMBERS ISLAND  1000   54        CALM     1012.2S
N MID LAKE BUOY  1050   48 45  150/  6/  8 1012.4S   1/ 4
NORTHPORT PIER   1000   51     150/  3/  6 1012.2S
SISTER BAY       1004   56        CALM       N/A
ALGOMA LAKESHORE 1017             CALM       N/A
KEWAUNEE LAKESHO 1000           40/  3/  4 1011.5R
SHEBOYGAN LAKESH 1100   65     340/  3/  3 1012.0F
PORT WASHINGTON  1000   60     280/  3/  4 1012.2F
S MID LAKE BUOY  1050   54 50  150/ 10/ 12 1012.0F   1/ 3
KENOSHA   LAKESH 1100   60     170/ 10/ 11 1011.5S
$$

TC  - TEMPERATURE IN CELSIUS
VSB - VISIBILITY IN STATUTE MILES
WCI - WIND CHILL INDEX
HX  - HEAT INDEX





USA.gov is the U.S. government's official web portal to all federal, state and local government web resources and services.